User: anonymous   Login
Location: Unspecified
(0.0000°N, 0.0000°E)
Time: 01:45:21
(UTC+00:00)
Language:

Mayak - Orbit

View from above orbital plane
View from above orbital plane
View from above satellite
View from above satellite

Ground track
Ground track

The orbit data is extracted from the following two-line orbital elements,

1 42830U 17042F   22343.06550469  .00008652  00000-0  75721-3 0  9996
2 42830  97.4112 192.5067 0014006 123.9976 236.2579 14.96870090294385
Epoch (UTC): 09 December 2022 01:34:19
Eccentricity: 0.0014006
inclination: 97.4112°
perigee height: 567 km
apogee height: 586 km
right ascension of ascending node: 192.5067°
argument of perigee: 123.9976°
revolutions per day: 14.96870090
mean anomaly at epoch: 236.2579°
orbit number at epoch: 29438

The dashed part of the orbit path shows where the satellite is in the earth's shadow,  

DLR